Weather History for Eureka, AK

Change the Weather History Date:

Sunday, March 23, 2014

  Actual Average Record
Temperature  
Mean Temperature 14 °F -  
Max Temperature 23 °F 17 °F 32 °F (1998)
Min Temperature 5 °F 5 °F -14 °F (2001)
Degree Days  
Heating Degree Days 51    
Moisture  
Dew Point 0 °F    
Average Humidity 55    
Maximum Humidity 73    
Minimum Humidity 43    
Precipitation  
Precipitation 0.00 in - - ()
Sea Level Pressure  
Sea Level Pressure 30.37 in    
Wind  
Wind Speed 2 mph (NE)    
Max Wind Speed 8 mph    
Max Gust Speed -    
Visibility 10 miles    
Events      
Averages and records for this station are not official NWS values.
T = Trace of Precipitation, MM = Missing Value Source: NWS Daily Summary

Daily Weather History Graph

Daily Weather History Graph

Search for Another Location

Airport:

Trip Planner

Search our weather history database for the weather conditions in past years. The results will help you decide how hot, cold, wet, or windy it might be!

Date:

Astronomy

Mar. 23, 2014 Rise Set
Actual Time 7:39 AM AKDT 8:12 PM AKDT
Civil Twilight 6:54 AM AKDT 8:57 PM AKDT
Nautical Twilight 6:00 AM AKDT 9:51 PM AKDT
Astronomical Twilight 4:59 AM AKDT 10:53 PM AKDT
Moon 4:07 AM AKDT (3/23) 11:00 AM AKDT (3/23)
Length of Visible Light 14h 02m
Length of Day
12h 33m
Waning Gibbous, 53% of the Moon is Illuminated
Mar 23
Waning Gibbous
Mar 23
Last Quarter
Mar 30
New
Apr 7
First Quarter
Apr 14
Full

Hourly Weather History & Observations

Time (AKDT) Temp. Windchill Dew Point Humidity Pressure Visibility Wind Dir Wind Speed Gust Speed Precip Events Conditions
12:16 AM 8.6 °F - -4.0 °F 57% 30.40 in 10.0 mi Calm Calm - N/A   Clear
12:36 AM 6.8 °F -2.0 °F -2.2 °F 67% 30.40 in 10.0 mi NE 4.6 mph - N/A   Clear
12:56 AM 8.6 °F 0.1 °F -0.4 °F 67% 30.40 in 10.0 mi NE 4.6 mph - N/A   Clear
1:16 AM 8.6 °F -1.3 °F -0.4 °F 67% 30.41 in 10.0 mi ENE 5.8 mph - N/A   Clear
1:36 AM 8.6 °F -2.6 °F -2.2 °F 62% 30.40 in 10.0 mi NE 6.9 mph - N/A   Clear
1:56 AM 6.8 °F -4.8 °F -2.2 °F 67% 30.41 in 10.0 mi NE 6.9 mph - N/A   Clear
2:16 AM 6.8 °F -4.8 °F -2.2 °F 67% 30.41 in 10.0 mi NE 6.9 mph - N/A   Clear
2:36 AM 8.6 °F -3.7 °F -0.4 °F 67% 30.41 in 10.0 mi NE 8.1 mph - N/A   Clear
2:56 AM 10.4 °F 0.8 °F 1.4 °F 67% 30.41 in 10.0 mi NE 5.8 mph - N/A   Clear
3:16 AM 10.4 °F 2.2 °F -2.2 °F 57% 30.41 in 10.0 mi NE 4.6 mph - N/A   Clear
3:36 AM 6.8 °F - -4.0 °F 61% 30.41 in 10.0 mi Calm Calm - N/A   Clear
3:56 AM 8.6 °F - 1.4 °F 73% 30.41 in 10.0 mi Calm Calm - N/A   Clear
4:16 AM 6.8 °F - -9.4 °F 48% 30.41 in 10.0 mi Calm Calm - N/A   Clear
4:36 AM 6.8 °F - -0.4 °F 72% 30.40 in 10.0 mi Calm Calm - N/A   Clear
4:56 AM 6.8 °F - -2.2 °F 67% 30.41 in 10.0 mi Calm Calm - N/A   Clear
5:16 AM 6.8 °F - -5.8 °F 56% 30.40 in 10.0 mi Calm Calm - N/A   Clear
5:36 AM 8.6 °F - -2.2 °F 62% 30.40 in 10.0 mi Calm Calm - N/A   Clear
5:56 AM 6.8 °F -0.1 °F -4.0 °F 61% 30.40 in 10.0 mi NE 3.5 mph - N/A   Clear
6:16 AM 6.8 °F -0.1 °F -2.2 °F 67% 30.40 in 10.0 mi NE 3.5 mph - N/A   Clear
6:36 AM 6.8 °F -0.1 °F -4.0 °F 61% 30.40 in 10.0 mi NE 3.5 mph - N/A   Clear
6:56 AM 5.0 °F -4.1 °F -2.2 °F 72% 30.40 in 10.0 mi NE 4.6 mph - N/A   Clear
7:16 AM 8.6 °F 0.1 °F -0.4 °F 67% 30.40 in 10.0 mi NE 4.6 mph - N/A   Clear
7:36 AM 8.6 °F 2.0 °F -0.4 °F 67% 30.39 in 10.0 mi NE 3.5 mph - N/A   Clear
7:56 AM 8.6 °F 2.0 °F -2.2 °F 62% 30.39 in 10.0 mi NNE 3.5 mph - N/A   Clear
8:16 AM 8.6 °F 0.1 °F -0.4 °F 67% 30.40 in 10.0 mi NNE 4.6 mph - N/A   Clear
8:36 AM 10.4 °F 4.0 °F 1.4 °F 67% 30.40 in 10.0 mi NNE 3.5 mph - N/A   Clear
8:56 AM 10.4 °F 4.0 °F -0.4 °F 62% 30.40 in 10.0 mi NNE 3.5 mph - N/A   Clear
9:16 AM 12.2 °F - 1.4 °F 62% 30.40 in 10.0 mi Calm Calm - N/A   Clear
9:36 AM 10.4 °F 4.0 °F -2.2 °F 57% 30.40 in 10.0 mi ESE 3.5 mph - N/A   Clear
9:56 AM 12.2 °F - -2.2 °F 53% 30.40 in 10.0 mi Calm Calm - N/A   Clear
10:16 AM 12.2 °F - -2.2 °F 53% 30.40 in 10.0 mi Calm Calm - N/A   Clear
10:36 AM 14.0 °F - -4.0 °F 45% 30.40 in 10.0 mi Calm Calm - N/A   Clear
10:56 AM 17.6 °F - 1.4 °F 49% 30.40 in 10.0 mi Calm Calm - N/A   Clear
11:16 AM 15.8 °F - -0.4 °F 49% 30.39 in 10.0 mi Calm Calm - N/A   Clear
11:36 AM 15.8 °F - -2.2 °F 45% 30.39 in 10.0 mi Calm Calm - N/A   Clear
11:56 AM 15.8 °F - 1.4 °F 53% 30.39 in 10.0 mi Calm Calm - N/A   Clear
12:16 PM 17.6 °F - 1.4 °F 49% 30.39 in 10.0 mi Calm Calm - N/A   Clear
12:36 PM 17.6 °F - 1.4 °F 49% 30.39 in 10.0 mi Calm Calm - N/A   Clear
12:56 PM 17.6 °F - 3.2 °F 53% 30.39 in 10.0 mi Calm Calm - N/A   Clear
1:16 PM 17.6 °F - 3.2 °F 53% 30.39 in 10.0 mi Calm Calm - N/A   Clear
1:36 PM 17.6 °F - 3.2 °F 53% 30.39 in 10.0 mi Calm Calm - N/A   Clear
1:56 PM 21.2 °F - 8.6 °F 58% 30.38 in 10.0 mi Calm Calm - N/A   Clear
2:16 PM 19.4 °F - 3.2 °F 49% 30.38 in 10.0 mi Calm Calm - N/A   Clear
2:36 PM 19.4 °F - 3.2 °F 49% 30.38 in 10.0 mi Calm Calm - N/A   Clear
2:56 PM 21.2 °F - 6.8 °F 54% 30.37 in 10.0 mi Calm Calm - N/A   Clear
3:16 PM 21.2 °F - 3.2 °F 46% 30.37 in 10.0 mi Calm Calm - N/A   Clear
3:36 PM 21.2 °F - 3.2 °F 46% 30.36 in 10.0 mi Calm Calm - N/A   Clear
3:56 PM 21.2 °F 14.9 °F 3.2 °F 46% 30.36 in 10.0 mi NNE 4.6 mph - N/A   Clear
4:16 PM 23.0 °F 18.4 °F 3.2 °F 43% 30.36 in 10.0 mi NNE 3.5 mph - N/A   Clear
4:36 PM 23.0 °F - 3.2 °F 43% 30.35 in 10.0 mi Calm Calm - N/A   Clear
4:56 PM 23.0 °F - 3.2 °F 43% 30.35 in 10.0 mi Calm Calm - N/A   Clear
5:16 PM 23.0 °F - 3.2 °F 43% 30.35 in 10.0 mi Calm Calm - N/A   Clear
5:36 PM 23.0 °F - 3.2 °F 43% 30.34 in 10.0 mi Calm Calm - N/A   Clear
5:56 PM 23.0 °F - 3.2 °F 43% 30.34 in 10.0 mi Calm Calm - N/A   Clear
6:16 PM 21.2 °F - 3.2 °F 46% 30.33 in 10.0 mi Calm Calm - N/A   Clear
6:36 PM 19.4 °F - 3.2 °F 49% 30.32 in 10.0 mi Calm Calm - N/A   Clear
6:56 PM 19.4 °F - 3.2 °F 49% 30.32 in 10.0 mi Calm Calm - N/A   Clear
7:16 PM 19.4 °F - 3.2 °F 49% 30.32 in 10.0 mi Calm Calm - N/A   Clear
7:36 PM 21.2 °F - 3.2 °F 46% 30.32 in 10.0 mi Calm Calm - N/A   Clear
7:56 PM 15.8 °F - -0.4 °F 49% 30.32 in 10.0 mi Calm Calm - N/A   Clear
8:16 PM 17.6 °F - 3.2 °F 53% 30.31 in 10.0 mi Calm Calm - N/A   Clear
8:36 PM 17.6 °F - -0.4 °F 45% 30.30 in 10.0 mi Calm Calm - N/A   Clear
8:56 PM 15.8 °F - -0.4 °F 49% 30.30 in 10.0 mi Calm Calm - N/A   Clear
9:16 PM 15.8 °F - -2.2 °F 45% 30.30 in 10.0 mi Calm Calm - N/A   Clear
9:36 PM 17.6 °F - 1.4 °F 49% 30.30 in 10.0 mi Calm Calm - N/A   Clear
9:56 PM 15.8 °F - -2.2 °F 45% 30.30 in 10.0 mi Calm Calm - N/A   Clear
10:16 PM 12.2 °F - -2.2 °F 53% 30.29 in 10.0 mi Calm Calm - N/A   Clear
10:36 PM 14.0 °F - -2.2 °F 49% 30.29 in 10.0 mi Calm Calm - N/A   Clear
10:56 PM 17.6 °F - 1.4 °F 49% 30.29 in 10.0 mi Calm Calm - N/A   Clear
11:16 PM 15.8 °F - -2.2 °F 45% 30.29 in 10.0 mi Calm Calm - N/A   Clear
11:36 PM 15.8 °F - -0.4 °F 49% 30.29 in 10.0 mi Calm Calm - N/A   Clear
11:56 PM 17.6 °F - 3.2 °F 53% 30.29 in 10.0 mi Calm Calm - N/A   Clear